Location: ??????
(42.0089°N, 44.3281°E)
Time: 18:44:56
(UTC+00:00)

USA 267 - Pass Details

Date: 03 June 2022
Orbit: 1101 x 1106 km, 123.0° (Epoch: 28 June)

Event Time Altitude Azimuth Distance (km) Brightness Sun altitude
Rises 00:15:21 0° 177° (S) 3,902 5.8 -11.6°
Reaches altitude 10° 00:18:38 10° 194° (SSW) 2,948 5.0 -11.1°
Maximum altitude 00:23:06 20° 238° (WSW) 2,322 4.4 -10.5°
Drops below altitude 10° 00:27:37 10° 282° (WNW) 2,959 5.2 -9.9°
Sets 00:30:57 0° 299° (WNW) 3,922 6.0 -9.5°
